Marshfield, WI

6:58 PM CST on November 11, 2019 (GMT -0600)
Marshfield Municipal

Weather History for KMFI - September, 2019

Change the Weather History Date:

Saturday, September 14, 2019

  Actual Average Record
Temperature  
Mean Temperature 58 °F -  
Max Temperature 71 °F 72 °F 95 °F (1948)
Min Temperature 46 °F 46 °F 23 °F (1923)
Degree Days  
Heating Degree Days 7    
Growing Degree Days 8 (Base 50)    
Moisture  
Dew Point 53 °F    
Average Humidity 79    
Maximum Humidity 93    
Minimum Humidity 58    
Precipitation  
Precipitation 0.00 in - - ()
Sea Level Pressure  
Sea Level Pressure 30.10 in    
Wind  
Wind Speed 7 mph (SW)    
Max Wind Speed 10 mph    
Max Gust Speed -    
Visibility 10 miles    
Events Rain    
Averages and records for this station are not official NWS values.
T = Trace of Precipitation, MM = Missing Value Source: NWS Daily Summary

Daily Weather History Graph

Daily Weather History Graph

Search for Another Location

Airport or City:

Astronomy

Sep. 14, 2019 Rise Set
Actual Time 6:38 AM CDT 7:13 PM CDT
Civil Twilight 6:08 AM CDT 7:42 PM CDT
Nautical Twilight 5:34 AM CDT 8:17 PM CDT
Astronomical Twilight 4:57 AM CDT 8:53 PM CDT
Moon 7:55 PM CDT (9/14) 6:50 AM CDT (9/14)
Length of Visible Light 13h 34m
Length of Day
12h 35m
Full, 100% of the Moon is Illuminated
Sep 14
Full
Sep 21
Last Quarter
Sep 28
New
Oct 5
First Quarter
Oct 13
Full

Hourly Weather History & Observations

Time (CDT) Temp. Dew Point Humidity Pressure Visibility Wind Dir Wind Speed Gust Speed Precip Events Conditions
12:54 AM 50.0 °F 46.9 °F 89% 30.08 in 10.0 mi SW 6.9 mph - N/A   Clear
1:54 AM 50.0 °F 46.9 °F 89% 30.09 in 10.0 mi WSW 6.9 mph - N/A   Clear
2:54 AM 50.0 °F 48.0 °F 93% 30.09 in 10.0 mi West 8.1 mph - N/A   Clear
3:54 AM 50.0 °F 48.0 °F 93% 30.10 in 10.0 mi WSW 8.1 mph - N/A   Clear
4:54 AM 50.0 °F 46.9 °F 89% 30.12 in 10.0 mi WSW 8.1 mph - N/A   Clear
5:54 AM 48.0 °F 46.0 °F 93% 30.13 in 10.0 mi WSW 5.8 mph - N/A   Clear
6:54 AM 46.9 °F 45.0 °F 93% 30.14 in 7.0 mi SW 4.6 mph - N/A   Clear
7:54 AM 51.1 °F 48.9 °F 92% 30.15 in 9.0 mi West 4.6 mph - N/A   Clear
8:54 AM 55.9 °F 51.1 °F 84% 30.16 in 10.0 mi West 8.1 mph - N/A   Clear
9:54 AM 60.1 °F 52.0 °F 75% 30.16 in 10.0 mi West 8.1 mph - N/A   Clear
10:54 AM 63.0 °F 53.1 °F 70% 30.17 in 10.0 mi WSW 8.1 mph - N/A   Clear
11:54 AM 64.9 °F 52.0 °F 63% 30.14 in 10.0 mi North - - N/A   Clear
12:54 PM 68.0 °F 53.1 °F 59% 30.14 in 10.0 mi West 9.2 mph - N/A   Clear
1:54 PM 69.1 °F 54.0 °F 58% 30.12 in 10.0 mi WSW 4.6 mph - N/A   Overcast
2:54 PM 69.1 °F 55.0 °F 61% 30.10 in 10.0 mi SSW 10.4 mph - N/A   Mostly Cloudy
3:54 PM 68.0 °F 57.0 °F 68% 30.08 in 9.0 mi South 9.2 mph - 0.00 in Rain Light Rain
4:54 PM 70.0 °F 57.9 °F 65% 30.07 in 10.0 mi South 8.1 mph - 0.00 in   Mostly Cloudy
5:54 PM 66.9 °F 57.0 °F 70% 30.06 in 10.0 mi SE 6.9 mph - N/A   Overcast
6:54 PM 64.9 °F 57.9 °F 78% 30.05 in 10.0 mi SE 4.6 mph - N/A   Overcast
7:54 PM 64.0 °F 57.9 °F 80% 30.05 in 10.0 mi ESE 3.5 mph - N/A   Overcast
9:54 PM 63.0 °F 57.9 °F 84% 30.04 in 10.0 mi East 5.8 mph - N/A   Overcast
10:54 PM 63.0 °F 59.0 °F 87% 30.04 in 10.0 mi SSE 4.6 mph - N/A   Overcast
11:54 PM 61.0 °F 57.9 °F 90% 30.03 in 10.0 mi NE 6.9 mph - N/A   Mostly Cloudy